Location: Biltmore Gardens
(41.6070°N, 83.4666°W)
Time: 14:04:02
(UTC+00:00)

Cosmos 1269 Rocket - Pass Details

Date: 14 July 2020
Orbit: 773 x 778 km, 74.1° (Epoch: 04 August)

Event Time Altitude Azimuth Distance (km) Brightness Sun altitude
Exits shadow 05:08:44 87° 147° (SSE) 781 3.9 -26.4°
Maximum altitude 05:08:47 88° 111° (ESE) 780 3.9 -26.4°
Drops below altitude 10° 05:14:05 10° 20° (NNE) 2,327 7.3 -26.5°
Sets 05:16:29 0° 20° (NNE) 3,258 8.2 -26.6°
